Time,TemperatureF,DewpointF,PressureIn,WindDirection,WindDirectionDegrees,WindSpeedMPH,WindSpeedGustMPH,Humidity,HourlyPrecipIn,Conditions,Clouds,dailyrainin,SoftwareType,DateUTC
2013-02-26 00:11:00,34.6,22.0,30.17,ENE,57,0.0,1.0,60,0.00,,,0.00,weatherlink.com 1.10,2013-02-26 05:11:00,
2013-02-26 00:26:00,34.8,22.0,30.16,NE,47,0.0,1.0,59,0.00,,,0.00,weatherlink.com 1.10,2013-02-26 05:26:00,
2013-02-26 00:41:00,35.1,22.0,30.16,ENE,63,0.0,2.0,60,0.00,,,0.00,weatherlink.com 1.10,2013-02-26 05:41:00,
2013-02-26 00:56:00,35.1,21.0,30.16,ENE,72,0.0,1.0,58,0.00,,,0.00,weatherlink.com 1.10,2013-02-26 05:56:00,
2013-02-26 01:11:00,35.3,23.0,30.18,ENE,72,0.0,1.0,60,0.00,,,0.00,weatherlink.com 1.10,2013-02-26 06:11:00,
2013-02-26 01:26:00,35.3,22.0,30.16,NE,55,0.0,1.0,58,0.00,,,0.00,weatherlink.com 1.10,2013-02-26 06:26:00,
2013-02-26 01:41:00,35.3,22.0,30.15,NE,55,0.0,3.0,59,0.00,,,0.00,weatherlink.com 1.10,2013-02-26 06:41:00,
2013-02-26 01:56:00,35.3,22.0,30.15,ENE,59,0.0,2.0,59,0.00,,,0.00,weatherlink.com 1.10,2013-02-26 06:56:00,
2013-02-26 02:11:00,35.2,22.0,30.13,ENE,59,1.0,4.0,59,0.00,,,0.00,weatherlink.com 1.10,2013-02-26 07:11:00,
2013-02-26 02:26:00,35.1,22.0,30.12,ENE,70,1.0,5.0,59,0.00,,,0.00,weatherlink.com 1.10,2013-02-26 07:26:00,
2013-02-26 02:41:00,35.1,22.0,30.12,ENE,76,0.0,3.0,59,0.00,,,0.00,weatherlink.com 1.10,2013-02-26 07:41:00,
2013-02-26 02:56:00,34.9,22.0,30.12,ENE,74,2.0,3.0,59,0.00,,,0.00,weatherlink.com 1.10,2013-02-26 07:56:00,
2013-02-26 03:11:00,34.7,22.0,30.12,ENE,74,1.0,4.0,60,0.00,,,0.00,weatherlink.com 1.10,2013-02-26 08:11:00,
2013-02-26 03:26:00,34.7,22.0,30.10,ENE,62,1.0,4.0,60,0.00,,,0.00,weatherlink.com 1.10,2013-02-26 08:26:00,
2013-02-26 03:41:00,34.5,22.0,30.09,NE,48,1.0,2.0,61,0.00,,,0.00,weatherlink.com 1.10,2013-02-26 08:41:00,
2013-02-26 03:56:00,34.6,22.0,30.10,ENE,67,0.0,3.0,61,0.00,,,0.00,weatherlink.com 1.10,2013-02-26 08:56:00,
2013-02-26 04:11:00,34.8,23.0,30.10,East,101,0.0,5.0,63,0.00,,,0.00,weatherlink.com 1.10,2013-02-26 09:11:00,
2013-02-26 04:26:00,34.6,23.0,30.10,East,83,0.0,4.0,63,0.00,,,0.00,weatherlink.com 1.10,2013-02-26 09:26:00,
2013-02-26 04:41:00,34.5,23.0,30.10,ESE,121,0.0,7.0,64,0.00,,,0.00,weatherlink.com 1.10,2013-02-26 09:41:00,
2013-02-26 04:56:00,34.2,23.0,30.11,ENE,71,0.0,3.0,65,0.00,,,0.00,weatherlink.com 1.10,2013-02-26 09:56:00,
2013-02-26 05:11:00,33.8,24.0,30.11,ESE,103,1.0,7.0,67,0.00,,,0.00,weatherlink.com 1.10,2013-02-26 10:11:00,
2013-02-26 05:26:00,33.5,24.0,30.10,NE,40,0.0,5.0,68,0.00,,,0.00,weatherlink.com 1.10,2013-02-26 10:26:00,
2013-02-26 05:41:00,33.5,24.0,30.10,NNE,32,2.0,4.0,69,0.00,,,0.00,weatherlink.com 1.10,2013-02-26 10:41:00,
2013-02-26 05:56:00,33.5,24.0,30.09,NNE,17,2.0,7.0,69,0.00,,,0.00,weatherlink.com 1.10,2013-02-26 10:56:00,
2013-02-26 06:12:00,33.5,24.0,30.07,ENE,69,1.0,5.0,68,0.00,,,0.00,weatherlink.com 1.10,2013-02-26 11:12:00,
2013-02-26 06:27:00,33.9,24.0,30.07,NE,50,3.0,5.0,68,0.00,,,0.00,weatherlink.com 1.10,2013-02-26 11:27:00,
2013-02-26 06:42:00,33.9,25.0,30.07,NW,319,1.0,7.0,69,0.00,,,0.00,weatherlink.com 1.10,2013-02-26 11:42:00,
2013-02-26 06:57:00,33.6,25.0,30.08,ENE,78,2.0,7.0,72,0.00,,,0.00,weatherlink.com 1.10,2013-02-26 11:57:00,
2013-02-26 07:12:00,33.2,27.0,30.07,NNE,24,3.0,6.0,77,0.00,,,0.00,weatherlink.com 1.10,2013-02-26 12:12:00,
2013-02-26 07:27:00,32.5,27.0,30.05,NNE,19,0.0,6.0,81,0.01,,,0.01,weatherlink.com 1.10,2013-02-26 12:27:00,
2013-02-26 07:42:00,32.1,28.0,30.04,ENE,59,0.0,4.0,85,0.02,,,0.02,weatherlink.com 1.10,2013-02-26 12:42:00,
2013-02-26 07:57:00,32.0,28.0,30.05,NE,34,1.0,5.0,85,0.03,,,0.03,weatherlink.com 1.10,2013-02-26 12:57:00,
2013-02-26 08:12:00,31.8,28.0,30.05,NE,37,1.0,3.0,87,0.04,,,0.04,weatherlink.com 1.10,2013-02-26 13:12:00,
2013-02-26 08:27:00,31.7,28.0,30.04,NE,34,0.0,3.0,87,0.04,,,0.05,weatherlink.com 1.10,2013-02-26 13:27:00,
2013-02-26 08:42:00,31.6,29.0,30.03,ENE,65,0.0,6.0,89,0.04,,,0.06,weatherlink.com 1.10,2013-02-26 13:42:00,
2013-02-26 08:57:00,31.7,29.0,30.02,ENE,59,1.0,8.0,90,0.04,,,0.07,weatherlink.com 1.10,2013-02-26 13:57:00,
2013-02-26 09:12:00,32.0,30.0,30.01,NNE,26,2.0,3.0,91,0.06,,,0.10,weatherlink.com 1.10,2013-02-26 14:12:00,
2013-02-26 09:27:00,32.2,30.0,30.00,ESE,102,0.0,3.0,91,0.07,,,0.12,weatherlink.com 1.10,2013-02-26 14:27:00,
2013-02-26 09:42:00,32.6,30.0,30.00,East,84,0.0,3.0,91,0.08,,,0.14,weatherlink.com 1.10,2013-02-26 14:42:00,
2013-02-26 09:57:00,32.6,31.0,29.98,NNW,330,1.0,4.0,92,0.10,,,0.17,weatherlink.com 1.10,2013-02-26 14:57:00,
2013-02-26 10:12:00,32.4,30.0,29.98,SE,142,1.0,4.0,92,0.08,,,0.18,weatherlink.com 1.10,2013-02-26 15:12:00,
2013-02-26 10:27:00,32.6,31.0,29.96,NE,55,1.0,10.0,93,0.09,,,0.21,weatherlink.com 1.10,2013-02-26 15:27:00,
2013-02-26 10:42:00,32.8,31.0,29.94,NE,37,0.0,3.0,93,0.09,,,0.23,weatherlink.com 1.10,2013-02-26 15:42:00,
2013-02-26 10:57:00,32.8,31.0,29.93,West,273,2.0,5.0,93,0.08,,,0.25,weatherlink.com 1.10,2013-02-26 15:57:00,
2013-02-26 11:12:00,32.9,31.0,29.91,ENE,66,2.0,5.0,93,0.11,,,0.29,weatherlink.com 1.10,2013-02-26 16:12:00,
2013-02-26 11:27:00,33.4,32.0,29.89,SE,134,0.0,9.0,94,0.11,,,0.32,weatherlink.com 1.10,2013-02-26 16:27:00,
2013-02-26 11:42:00,33.6,32.0,29.89,NNE,17,1.0,4.0,94,0.12,,,0.35,weatherlink.com 1.10,2013-02-26 16:42:00,
2013-02-26 11:57:00,33.4,32.0,29.88,NNE,17,0.0,6.0,93,0.12,,,0.37,weatherlink.com 1.10,2013-02-26 16:57:00,
2013-02-26 12:12:00,33.5,32.0,29.87,North,5,0.0,3.0,94,0.12,,,0.41,weatherlink.com 1.10,2013-02-26 17:12:00,
2013-02-26 12:27:00,33.7,32.0,29.85,ENE,77,0.0,5.0,94,0.12,,,0.44,weatherlink.com 1.10,2013-02-26 17:27:00,
2013-02-26 12:42:00,34.3,33.0,29.84,ESE,104,1.0,5.0,95,0.13,,,0.48,weatherlink.com 1.10,2013-02-26 17:42:00,
2013-02-26 12:57:00,34.0,33.0,29.83,NE,42,0.0,4.0,94,0.12,,,0.50,weatherlink.com 1.10,2013-02-26 17:57:00,
2013-02-26 13:13:00,33.5,32.0,29.81,NE,49,0.0,4.0,94,0.11,,,0.52,weatherlink.com 1.10,2013-02-26 18:13:00,
2013-02-26 13:28:00,33.8,33.0,29.79,ENE,65,0.0,5.0,95,0.09,,,0.53,weatherlink.com 1.10,2013-02-26 18:28:00,
2013-02-26 13:43:00,33.8,33.0,29.77,North,9,1.0,4.0,95,0.06,,,0.54,weatherlink.com 1.10,2013-02-26 18:43:00,
2013-02-26 13:58:00,34.0,33.0,29.76,East,88,2.0,5.0,94,0.05,,,0.55,weatherlink.com 1.10,2013-02-26 18:58:00,
2013-02-26 14:13:00,34.3,33.0,29.74,ENE,71,2.0,4.0,95,0.05,,,0.57,weatherlink.com 1.10,2013-02-26 19:13:00,
2013-02-26 14:28:00,34.7,34.0,29.72,NW,317,2.0,8.0,95,0.05,,,0.58,weatherlink.com 1.10,2013-02-26 19:28:00,
2013-02-26 14:43:00,35.0,34.0,29.71,NNE,17,0.0,3.0,95,0.06,,,0.60,weatherlink.com 1.10,2013-02-26 19:43:00,
2013-02-26 14:58:00,35.1,34.0,29.69,NE,44,2.0,3.0,95,0.05,,,0.61,weatherlink.com 1.10,2013-02-26 19:58:00,
2013-02-26 15:13:00,35.5,34.0,29.67,WNW,298,1.0,4.0,95,0.04,,,0.61,weatherlink.com 1.10,2013-02-26 20:13:00,
2013-02-26 15:28:00,35.8,35.0,29.66,North,355,0.0,5.0,95,0.03,,,0.62,weatherlink.com 1.10,2013-02-26 20:28:00,
2013-02-26 15:43:00,36.0,35.0,29.65,NNE,19,2.0,3.0,95,0.05,,,0.65,weatherlink.com 1.10,2013-02-26 20:43:00,
2013-02-26 15:58:00,36.2,35.0,29.65,West,264,0.0,2.0,95,0.11,,,0.72,weatherlink.com 1.10,2013-02-26 20:58:00,
2013-02-26 16:13:00,36.6,36.0,29.65,WNW,286,5.0,5.0,96,0.14,,,0.76,weatherlink.com 1.10,2013-02-26 21:13:00,
2013-02-26 16:28:00,36.2,35.0,29.66,NW,315,3.0,5.0,95,0.15,,,0.77,weatherlink.com 1.10,2013-02-26 21:28:00,
2013-02-26 16:43:00,35.9,35.0,29.68,NNW,333,3.0,5.0,96,0.12,,,0.78,weatherlink.com 1.10,2013-02-26 21:43:00,
2013-02-26 16:58:00,35.6,34.0,29.65,WNW,302,3.0,5.0,95,0.07,,,0.79,weatherlink.com 1.10,2013-02-26 21:58:00,
2013-02-26 17:13:00,35.4,34.0,29.64,NE,45,1.0,9.0,96,0.03,,,0.79,weatherlink.com 1.10,2013-02-26 22:13:00,
2013-02-26 17:28:00,35.4,34.0,29.64,NW,315,3.0,5.0,96,0.02,,,0.79,weatherlink.com 1.10,2013-02-26 22:28:00,
2013-02-26 17:43:00,35.4,34.0,29.64,NNW,331,1.0,5.0,96,0.01,,,0.79,weatherlink.com 1.10,2013-02-26 22:43:00,
2013-02-26 17:58:00,35.6,35.0,29.64,West,263,5.0,5.0,96,0.00,,,0.79,weatherlink.com 1.10,2013-02-26 22:58:00,
2013-02-26 18:13:00,35.9,35.0,29.63,NW,319,4.0,7.0,96,0.00,,,0.79,weatherlink.com 1.10,2013-02-26 23:13:00,
2013-02-26 18:28:00,36.1,35.0,29.62,WSW,254,3.0,5.0,96,0.00,,,0.79,weatherlink.com 1.10,2013-02-26 23:28:00,
2013-02-26 18:43:00,36.6,36.0,29.62,North,360,2.0,10.0,97,0.00,,,0.79,weatherlink.com 1.10,2013-02-26 23:43:00,
2013-02-26 18:58:00,36.8,36.0,29.63,WNW,290,3.0,3.0,96,0.00,,,0.79,weatherlink.com 1.10,2013-02-26 23:58:00,
2013-02-26 19:13:00,37.0,36.0,29.63,West,268,0.0,3.0,96,0.01,,,0.80,weatherlink.com 1.10,2013-02-27 00:13:00,
2013-02-26 19:28:00,37.1,36.0,29.64,West,279,2.0,5.0,96,0.01,,,0.80,weatherlink.com 1.10,2013-02-27 00:28:00,
2013-02-26 19:43:00,37.1,36.0,29.64,NW,305,1.0,4.0,96,0.01,,,0.80,weatherlink.com 1.10,2013-02-27 00:43:00,
2013-02-26 19:58:00,37.0,36.0,29.65,West,270,2.0,4.0,96,0.01,,,0.80,weatherlink.com 1.10,2013-02-27 00:58:00,
2013-02-26 20:13:00,36.9,36.0,29.65,West,271,2.0,4.0,96,0.00,,,0.80,weatherlink.com 1.10,2013-02-27 01:13:00,
2013-02-26 20:28:00,37.1,36.0,29.65,WSW,257,2.0,2.0,97,0.00,,,0.80,weatherlink.com 1.10,2013-02-27 01:28:00,
2013-02-26 20:43:00,37.1,36.0,29.65,North,355,1.0,3.0,96,0.00,,,0.80,weatherlink.com 1.10,2013-02-27 01:43:00,
2013-02-26 20:58:00,37.1,36.0,29.66,WNW,302,3.0,4.0,96,0.00,,,0.80,weatherlink.com 1.10,2013-02-27 01:58:00,
2013-02-26 21:13:00,37.1,36.0,29.65,NNW,339,0.0,2.0,96,0.00,,,0.80,weatherlink.com 1.10,2013-02-27 02:13:00,
2013-02-26 21:28:00,37.3,36.0,29.65,North,355,2.0,3.0,96,0.00,,,0.80,weatherlink.com 1.10,2013-02-27 02:28:00,
2013-02-26 21:43:00,37.3,36.0,29.65,NNW,327,0.0,4.0,96,0.00,,,0.80,weatherlink.com 1.10,2013-02-27 02:43:00,
2013-02-26 21:58:00,37.4,37.0,29.66,West,277,2.0,3.0,97,0.00,,,0.80,weatherlink.com 1.10,2013-02-27 02:58:00,
2013-02-26 22:13:00,37.5,37.0,29.66,West,273,2.0,3.0,97,0.00,,,0.80,weatherlink.com 1.10,2013-02-27 03:13:00,
2013-02-26 22:28:00,37.6,37.0,29.65,NW,322,0.0,2.0,97,0.00,,,0.80,weatherlink.com 1.10,2013-02-27 03:28:00,
2013-02-26 22:43:00,37.5,37.0,29.63,North,355,1.0,2.0,96,0.00,,,0.80,weatherlink.com 1.10,2013-02-27 03:43:00,
2013-02-26 22:58:00,37.5,37.0,29.65,WNW,298,2.0,4.0,96,0.00,,,0.80,weatherlink.com 1.10,2013-02-27 03:58:00,
2013-02-26 23:13:00,37.7,37.0,29.64,WNW,284,0.0,3.0,97,0.00,,,0.80,weatherlink.com 1.10,2013-02-27 04:13:00,
2013-02-26 23:28:00,37.9,37.0,29.64,SW,223,0.0,2.0,97,0.00,,,0.80,weatherlink.com 1.10,2013-02-27 04:28:00,
2013-02-26 23:43:00,37.9,37.0,29.64,West,267,1.0,4.0,97,0.00,,,0.80,weatherlink.com 1.10,2013-02-27 04:43:00,
2013-02-26 23:58:00,37.9,37.0,29.63,WNW,284,1.0,3.0,97,0.00,,,0.80,weatherlink.com 1.10,2013-02-27 04:58:00,